Brno, Czech Republic

10:27 PM CET on March 24, 2017 (GMT +0100)
Brno

Weather History for LKTB - April, 2013

Change the Weather History Date:

Friday, April 12, 2013

  Actual Average Record
Temperature  
Mean Temperature 52 °F -  
Max Temperature 59 °F 62 °F - ()
Min Temperature 42 °F 42 °F - ()
Degree Days  
Heating Degree Days 13    
Growing Degree Days 2 (Base 50)    
Moisture  
Dew Point 43 °F    
Average Humidity 71    
Maximum Humidity 87    
Minimum Humidity 48    
Precipitation  
Precipitation 0.08 in 0.06 in - ()
Sea Level Pressure  
Sea Level Pressure 29.70 in    
Wind  
Wind Speed 6 mph ()    
Max Wind Speed 16 mph    
Max Gust Speed -    
Visibility 6.7 miles    
Events Rain    
T = Trace of Precipitation, MM = Missing Value Source: Averaged Metar Reports

Daily Weather History Graph

Daily Weather History Graph

Search for Another Location

Airport or City:

Trip Planner

Search our weather history database for the weather conditions in past years. The results will help you decide how hot, cold, wet, or windy it might be!

Date:

Astronomy

Apr. 12, 2013 Rise Set
Actual Time 6:07 AM CEST 7:41 PM CEST
Civil Twilight 5:34 AM CEST 8:14 PM CEST
Nautical Twilight 4:54 AM CEST 8:54 PM CEST
Astronomical Twilight 4:10 AM CEST 9:39 PM CEST
Moon 6:55 AM CEST (4/12) 10:08 PM CEST (4/12)
Length of Visible Light 14h 39m
Length of Day
13h 33m
Waxing Crescent, 4% of the Moon is Illuminated
Apr 12
Waxing Crescent
Apr 18
First Quarter
Apr 25
Full
May 2
Last Quarter
May 10
New

Hourly Weather History & Observations

Time (CEST) Temp. Windchill Dew Point Humidity Pressure Visibility Wind Dir Wind Speed Gust Speed Precip Events Conditions
12:00 AM 53.6 °F - 42.8 °F 67% 29.71 in 6.2 mi ESE 3.5 mph - N/A   Partly Cloudy
12:30 AM 51.8 °F - 41.0 °F 67% 29.68 in 6.2 mi SE 3.5 mph - N/A   Partly Cloudy
1:00 AM 51.8 °F - 41.0 °F 67% 29.68 in - East 4.6 mph - N/A   Clear
1:30 AM 51.8 °F - 41.0 °F 67% 29.68 in - ENE 3.5 mph - N/A   Clear
2:00 AM 50 °F - 41 °F 61% 29.67 in 12 mi East 4.5 mph - -   Partly Cloudy
2:00 AM 50.0 °F - 41.0 °F 71% 29.65 in - East 5.8 mph - N/A   Clear
2:30 AM 50.0 °F - 41.0 °F 71% 29.65 in - East 4.6 mph - N/A   Clear
3:00 AM 48.2 °F - 41.0 °F 76% 29.62 in - East 5.8 mph - N/A   Clear
3:30 AM 46.4 °F 43.5 °F 41.0 °F 81% 29.62 in - East 5.8 mph - N/A   Clear
4:00 AM 48.2 °F - 41.0 °F 76% 29.62 in - East 5.8 mph - N/A   Clear
4:30 AM 46.4 °F 43.5 °F 39.2 °F 76% 29.62 in - East 5.8 mph - N/A   Clear
5:00 AM 46.4 °F 42.4 °F 39.2 °F 76% 29.62 in - East 8.1 mph - N/A   Clear
5:30 AM 44.6 °F 40.2 °F 41.0 °F 87% 29.62 in - East 8.1 mph - N/A   Clear
6:00 AM 48.2 °F - 41.0 °F 76% 29.62 in - ESE 10.4 mph - N/A   Clear
6:30 AM 48.2 °F - 41.0 °F 76% 29.62 in - ESE 8.1 mph - N/A   Clear
7:00 AM 48.2 °F - 41.0 °F 76% 29.59 in - ESE 9.2 mph - N/A   Clear
7:30 AM 50.0 °F - 42.8 °F 76% 29.62 in - ESE 8.1 mph - N/A   Clear
7:39 AM 50.0 °F - 42.8 °F 76% 29.62 in 6.2 mi SE 8.1 mph - N/A Rain Light Rain
8:00 AM 50 °F - 43 °F 70% 29.66 in 12 mi SE 8.9 mph - - Rain Light Rain
8:00 AM 50.0 °F - 42.8 °F 76% 29.62 in 6.2 mi SE 6.9 mph - N/A Rain Light Rain
8:30 AM 50.0 °F - 42.8 °F 76% 29.65 in 6.2 mi South 3.5 mph - N/A Rain Light Rain
9:00 AM 50.0 °F - 44.6 °F 82% 29.65 in 6.2 mi Variable 2.3 mph - N/A Rain Light Rain
9:30 AM 48.2 °F - 44.6 °F 87% 29.65 in 6.2 mi Variable 1.2 mph - N/A Rain Light Rain
10:00 AM 50.0 °F - 44.6 °F 82% 29.65 in 6.2 mi East 3.5 mph - N/A Rain Light Rain
10:30 AM 50.0 °F - 46.4 °F 87% 29.68 in 6.2 mi SE 4.6 mph - N/A Rain Light Rain
11:00 AM 51.8 °F - 46.4 °F 82% 29.68 in 6.2 mi SSW 8.1 mph - N/A Rain Light Rain
11:30 AM 51.8 °F - 46.4 °F 82% 29.68 in 6.2 mi SSW 10.4 mph - N/A   Scattered Clouds
12:00 PM 51.8 °F - 46.4 °F 82% 29.71 in 6.2 mi SSW 12.7 mph - N/A   Scattered Clouds
12:30 PM 53.6 °F - 48.2 °F 82% 29.71 in 6.2 mi SSW 8.1 mph - N/A   Mostly Cloudy
1:00 PM 53.6 °F - 48.2 °F 82% 29.71 in 6.2 mi SW 13.8 mph - N/A   Partly Cloudy
1:30 PM 57.2 °F - 50.0 °F 77% 29.71 in 6.2 mi SSW 11.5 mph - N/A   Scattered Clouds
2:00 PM 58 °F - 47 °F 59% 29.73 in 22 mi SW 11.2 mph - -   Partly Cloudy
2:00 PM 57.2 °F - 48.2 °F 72% 29.71 in 6.2 mi SW 11.5 mph - N/A   Mostly Cloudy
2:30 PM 59.0 °F - 44.6 °F 59% 29.71 in 6.2 mi WSW 11.5 mph - N/A   Scattered Clouds
3:00 PM 59.0 °F - 44.6 °F 59% 29.71 in 6.2 mi SW 10.4 mph - N/A   Partly Cloudy
3:30 PM 59.0 °F - 44.6 °F 59% 29.71 in 6.2 mi WSW 11.5 mph - N/A   Partly Cloudy
4:00 PM 59.0 °F - 44.6 °F 59% 29.71 in 6.2 mi WSW 9.2 mph - N/A   Partly Cloudy
4:30 PM 59.0 °F - 42.8 °F 55% 29.71 in - WSW 9.2 mph - N/A   Clear
5:00 PM 59.0 °F - 39.2 °F 48% 29.74 in - West 16.1 mph - N/A   Clear
5:30 PM 57.2 °F - 39.2 °F 51% 29.74 in - West 13.8 mph - N/A   Clear
6:00 PM 57.2 °F - 39.2 °F 51% 29.74 in - West 12.7 mph - N/A   Clear
6:30 PM 55.4 °F - 41.0 °F 58% 29.74 in - West 11.5 mph - N/A   Clear
7:00 PM 55.4 °F - 41.0 °F 58% 29.77 in - WSW 13.8 mph - N/A   Clear
7:30 PM 55.4 °F - 41.0 °F 58% 29.77 in - WSW 8.1 mph - N/A   Clear
8:00 PM 53 °F - 41 °F 53% 29.79 in 22 mi SW 11.2 mph - -   Scattered Clouds
8:00 PM 53.6 °F - 41.0 °F 62% 29.77 in - SW 10.4 mph - N/A   Clear
8:30 PM 51.8 °F - 41.0 °F 67% 29.80 in - SW 9.2 mph - N/A   Clear
9:00 PM 50.0 °F - 41.0 °F 71% 29.80 in - SSW 9.2 mph - N/A   Clear
9:30 PM 46.4 °F 42.4 °F 41.0 °F 81% 29.80 in - SSW 8.1 mph - N/A   Clear
10:00 PM 46.4 °F - 41.0 °F 81% 29.83 in - Variable 1.2 mph - N/A   Clear
10:30 PM 46.4 °F - 41.0 °F 81% 29.83 in - SSW 2.3 mph - N/A   Clear
11:00 PM 46.4 °F 43.5 °F 41.0 °F 81% 29.83 in - SSW 5.8 mph - N/A   Clear
11:30 PM 42.8 °F 40.1 °F 39.2 °F 87% 29.83 in - SSW 4.6 mph - N/A   Clear